Regional Weather Roundup
Issued by NWS Upton, NY

Current Version | Previous Version | Graphics & Text | Print | Product List | Glossary Off
Versions: 1 2 3 4 5 6 7 8 9 10 11 12 13 14 15 16 17 18 19 20 21 22 23 24 25 26 27 28 29 30 31 32 33 34 35 36 37 38 39 40 41 42

000
ASUS41 KOKX 262205
RWROKX

REGIONAL WEATHER ROUNDUP
NATIONAL WEATHER SERVICE NEW YORK NY
500 PM EST FRI DEC 26 2014

NOTE: "FAIR" INDICATES FEW OR NO CLOUDS BELOW 12,000 FEET WITH NO
SIGNIFICANT WEATHER AND/OR OBSTRUCTIONS TO VISIBILITY.

NYZ071-072-176-178-NJZ106-104-262300-
NEW YORK CITY METRO AREA


CITY           SKY/WX    TMP DP  RH WIND       PRES   REMARKS
CENTRAL PARK   CLEAR     48  27  44 CALM      30.22R
LAGUARDIA APRT PTCLDY    48  28  46 W6        30.19S
KENNEDY INTL   PTCLDY    45  32  60 SW13      30.21S
NEWARK/LIBERTY PTCLDY    46  29  51 SW10      30.21R
BRNX BOT. GARD   N/A    N/A N/A N/A SW10      30.19S
TETERBORO      CLEAR     47  29  49 W5        30.19R
$$

NYZ177-179-078>081-262300-
LONG ISLAND NEW YORK

CITY           SKY/WX    TMP DP  RH WIND       PRES   REMARKS
FARMINGDALE    CLEAR     46  28  49 SW7       30.20R
ISLIP          PTCLDY    44  29  55 SW6       30.18R
SHIRLEY        CLEAR     44  30  57 W3        30.20R
WESTHAMPTON    CLEAR     38  28  67 CALM      30.20R
MONTAUK POINT    N/A     45  33  63 SW6       30.18R
$$

NYZ052-065-067-262300-
HUDSON VALLEY

CITY           SKY/WX    TMP DP  RH WIND       PRES   REMARKS
WHITE PLAINS   CLEAR     42  28  57 CALM      30.17R
NEWBURGH       CLEAR     48  30  49 W7        30.18R
MONTGOMERY     CLEAR     41  28  60 SW7       30.16R
POUGHKEEPSIE   CLEAR     46  28  49 CALM      30.17R
ALBANY         PTCLDY    40  28  62 CALM      30.16S
$$

NJZ001-105-106-008-010-013-015-019>022-104-262300-
NEW JERSEY

CITY           SKY/WX    TMP DP  RH WIND       PRES   REMARKS
NEWARK/LIBERTY PTCLDY    46  29  51 SW10      30.21R
TETERBORO      CLEAR     47  29  49 W5        30.19R
CALDWELL       CLEAR     45  27  49 SW3       30.20R
MORRISTOWN     CLEAR     48  30  49 W7        30.21R
SOMERVILLE     CLEAR     45  29  53 CALM      30.20R
SUSSEX         CLEAR     42  28  57 CALM      30.18S
ANDOVER        NOT AVBL
TRENTON        CLEAR     45  29  53 W6        30.22R
MILLVILLE      CLEAR     40  33  76 CALM      30.24S
ATLANTIC CITY  CLEAR     46  30  53 W5        30.24R
WRIGHTSTOWN    CLEAR     42  30  62 W5        30.21R
TOMS RIVER     CLEAR     41  32  70 CALM      30.23S
BELMAR         CLEAR     45  28  53 W6        30.22R
$$

PAZ047>061-062-071-262300-
EASTERN PENNSYLVANIA

CITY           SKY/WX    TMP DP  RH WIND       PRES   REMARKS
PHILADELPHIA   PTCLDY    46  31  55 W8        30.25R
ALLENTOWN      CLEAR     41  28  60 SW9       30.21R
SCRANTON       CLEAR     42  28  57 SW6       30.18S
$$

CTZ002-004>006-009-010-012-RIZ004-006-007-MAZ004-011-015-262300-
SOUTHERN NEW ENGLAND
 IN CT

CITY           SKY/WX    TMP DP  RH WIND       PRES   REMARKS
BRADLEY INTL   PTCLDY    44  27  51 W6        30.15R
HARTFORD       CLEAR     47  28  47 SW8       30.16R
DANBURY        CLEAR     39  28  64 CALM      30.18R
WTRBRY/OXFORD  CLEAR     43  27  52 CALM      30.17R
BRIDGEPORT     CLEAR     44  36  73 W5        30.18R
MERIDEN        CLEAR     39  30  70 CALM      30.17R
NEW HAVEN      PTCLDY    47  35  63 SW7       30.18R
CHESTER        FAIR      43  32  65 SW5       30.17R
GROTON         CLEAR     42  35  76 W10       30.16R
WILLIMANTIC    CLEAR     44  29  55 CALM      30.15R

 IN RI

CITY           SKY/WX    TMP DP  RH WIND       PRES   REMARKS
PROVIDENCE     PTCLDY    45  29  53 W7        30.15R
BLOCK ISLAND   CLEAR     45  32  61 W10G17    30.15R
WESTERLY       CLEAR     44  37  76 W9        30.16R

 IN MA

CITY           SKY/WX    TMP DP  RH WIND       PRES   REMARKS
BOSTON         PTCLDY    48  30  49 W7        30.12S
WORCESTER      CLEAR     39  27  62 W10       30.10S WCI  32
WESTFIELD      CLEAR     43  27  53 CALM      30.15R
PROVINCETOWN   CLEAR     43  36  75 SW6       30.13S
NANTUCKET      CLEAR     42  35  76 W6        30.14S
$$

ANZ330-335-338-340-345-350-353-355-262300-
COASTAL MARINE OBSERVATIONS


STATION/POSITION TIME  SKY/WX   TEMP    WIND        PRES    VSBY  WAVE
                                AIR SEA DIR/SP/G                  HT/PER
                 (UTC)          (F)     (DEG/KT/KT) (MB)    (MI)  (FT/S)
NY HARB ENTRANCE 2200            46 45  250/  6/  6 1023.8          1/ 8
4S FIRE IS       2200               47                N/A           3/13
20S FIRE ISLAND  2100            48 49              1023.2          3/ 4
23SW MTP         2200                                 N/A           3/ 6
HUDSON CANYON    2200            46 55  280/ 14/ 17 1023.1          4/ 5
EXECUTION ROCKS  2200            45 42  220/  4/  6   N/A
WESTERN LI SOUND 2200            45     220/  6/  6   N/A           0
CENTRAL LI SOUND 2100            45 44  240/ 12/ 14   N/A           1/ 3
EASTERN LI SOUND NOT AVBL
ROBBINS REEF     2200            48                 1021.4
$$


>>>>>>>>>>>>>>>>>>>>>>>>>>>> KEY <<<<<<<<<<<<<<<<<<<<<<<<<<<
>                                                          <
>     SKY/WX - SKY CONDITION/PRESENT WEATHER               <
>     TMP    - TEMPERATURE IN FAHRENHEIT                   <
>     DP     - DEWPOINT IN FAHRENHEIT                      <
>     RH     - RELATIVE HUMIDITY IN PERCENT                <
>     WIND   - DIRECTION AND SPEED IN MPH                  <
>     PRES   - MEAN SEA LEVEL PRESSURE IN INCHES OF HG     <
>     WCI    - WIND CHILL INDEX                            <
>     VSB    - VISIBILITY IN MILES                         <
>     HX     - HEAT INDEX                                  <
>     TC     - TEMPERATURE IN CELSIUS                      <
>     VRB    - VARIABLE WIND DIRECTION                     <
>                                                          <
>>>>>>>>>>>>>>>>>>>>>>>>>>>> KEY <<<<<<<<<<<<<<<<<<<<<<<<<<<




USA.gov is the U.S. government's official web portal to all federal, state and local government web resources and services.